Current weather by "City, St" or "zip code"  
 

Current Conditions: Eufaula Municipal Airport, AL

Light Rain


67.0 F

Last Updated on Oct 21 2021, 12:58 pm CDT
Humidity: 93%
Wind Speed: SW 6.9 mph
Barometer 30.16 in
Dewpoint: 64.9 F
Visibility: 8.00 mi
Precip: 00.25 in
Heat Index: NA
Wind Chill: NA
Current conditions at:

Eufaula Municipal Airport, AL (KEUF)

Lat: 31.951 Lon: 85.129

Local Radar Image active severe weather and emergency alerts image image weather storm and storm spotter reports image weather observation monitoring service image
Local
Radar
Active
Alerts
Storm Reports Obs
Monitoring

Sign-up For Email & Text Message Weather Alert Notification Services



Advertise Here

Observation History for Eufaula Municipal Airport, AL


Time Wind
(mph)
Vis
(mi)
Weather Precip (in) Temperature (F) Relative
Humidity
Wind
Chill
(F)
Heat
Index
(F)
Pressure
Air Dwpt altimeter
(in)
sea level
(mb)
Rmks
12:58 pm CDT SW 6.9 8.00 Light Rain 00.25 67.0 64.9 93% NA NA 30.16 1021.0
11:58 am CDT NW 5.8 10.00 Thunderstorm Trace 71.0 63.0 76% NA NA 30.20 1022.3
10:58 am CDT 4.6 10.00 Partly Cloudy -- 79.0 62.1 56% NA NA 30.20 1022.4
9:58 am CDT S 3.5 10.00 Fair -- 76.0 62.1 62% NA NA 30.20 1022.4
8:58 am CDT 4.6 10.00 Fair -- 72.0 61.0 68% NA NA 30.19 1021.9
7:58 am CDT N 0.0 10.00 Fair -- 67.0 61.0 81% NA NA 30.18 1021.7
6:58 am CDT SE 3.5 10.00 Fair -- 64.0 59.0 84% NA NA 30.17 1021.2
5:58 am CDT N 0.0 10.00 Overcast -- 66.0 63.0 90% NA NA 30.17 1021.5
4:58 am CDT N 0.0 10.00 Overcast -- 65.0 62.1 90% NA NA 30.16 1020.9
3:58 am CDT N 0.0 10.00 Overcast -- 65.0 62.1 90% NA NA 30.16 1020.8
2:58 am CDT N 0.0 10.00 Overcast -- 65.0 62.1 90% NA NA 30.16 1020.9
1:58 am CDT N 0.0 10.00 Overcast -- 63.0 60.1 90% NA NA 30.17 1021.3
12:58 am CDT N 0.0 10.00 Fair -- 63.0 59.0 87% NA NA 30.18 1021.6
11:58 pm CDT N 0.0 10.00 Fair -- 63.0 59.0 87% NA NA 30.20 1022.2
10:58 pm CDT N 0.0 10.00 Fair -- 64.0 60.1 87% NA NA 30.21 1022.7
9:58 pm CDT N 0.0 10.00 Fair -- 63.0 60.1 90% NA NA 30.20 1022.4
8:58 pm CDT N 0.0 10.00 Fair -- 63.0 60.1 90% NA NA 30.20 1022.3
7:58 pm CDT N 0.0 10.00 Fair -- 65.0 60.1 84% NA NA 30.19 1022.0
6:58 pm CDT N 0.0 10.00 Fair -- 66.0 61.0 84% NA NA 30.19 1022.0
5:58 pm CDT N 0.0 9.00 Fair -- 70.0 62.1 76% NA NA 30.19 1022.1
4:58 pm CDT N 0.0 10.00 Fair -- 80.0 57.0 45% NA 80 30.18 1021.6
3:58 pm CDT 3.5 10.00 Fair -- 82.0 55.9 41% NA 82 30.18 1021.6
2:58 pm CDT S 3.5 10.00 Fair -- 81.0 55.9 42% NA 81 30.20 1022.3
1:58 pm CDT N 0.0 10.00 A Few Clouds -- 83.0 57.0 41% NA 83 30.22 1023.0

Regional Weather Observation


Auburn-Opelika Airport, AL (KAUO)

A Few Clouds
70.0 F

Fort Benning, GA (KLSF)

Mostly Cloudy
71.0 F

Columbus, Columbus Metropolitan Airport, GA (KCSG)

A Few Clouds
74.0 F

Alexander City, Thomas C Russell Field Airport, AL (KALX)

Mostly Cloudy
70.0 F

Pine Mountain Harris County Airport, GA (KPIM)

Thunderstorm Heavy Rain
74.0 F

Dothan, Dothan Regional Airport, AL (KDHN)

Mostly Cloudy
81.0 F

Advertise Here


Advertise Here